Погода в Кесон-Сити

Филиппины     14°39′05″N   121°02′57″E
темп.,
°C
ветер,
м/с
пор.,
м/с
влажн.,
%
обл.,
%
осадки,
мм/ч
давл.,
гПа
погр.,
м
17 апреля, сб
сб1723:00+27ссв0162100 0.0 1012356
02:00+26всв1168100 0.0 1010238
05:00+26ссв1174100 0.0 1010229
08:00+29ююв1160100 0.0 1012747
11:00+33зюз3441100 0.0 10111569
14:00+34юз644166 0.0 10071157
17:00+33ююз5539100 0.0 10071010
20:00+29юв2359100 0.0 1010432
18 апреля, вс
вс1823:00+28св2364100 0.0 1011449
02:00+27в1169100 0.0 1009234
05:00+26юв0172100 0.0 1009243
08:00+29ююв016283 0.0 1011723
11:00+33з1443100 0.0 10091925
14:00+31юз4450100 0.0 1005539
17:00+32ююв2244100 0.0 1004713
20:00+29ю2463100 0.4 1007466
19 апреля, пн
пн1923:00+27вюв2268100 0.1 1009271
02:00+27ссз0169100 0.6 1006230
05:00+26ссв1172100 0.0 1006162
08:00+28с2462100 0.0 1008743
11:00+33зсз3442100 0.0 10061475
14:00+33юз7744100 0.0 10031147
17:00+30зюз4661100 1.8 1004740
20:00+27сз1473100 4.9 1006413
20 апреля, вт
вт2023:00+27зсз1376100 0.8 1006229
02:00+26ссв1280100 1.2 1005126
05:00+25ссв2282100 0.1 1005133
08:00+27ссз2363100 0.1 1007534
11:00+31зюз2248100 0.0 10061108
14:00+32юз6446100 0.0 10031040
17:00+30юз6763100 0.0 1003637
20:00+28юз1272100 1.8 1006207
21 апреля, ср
ср2123:00+27с1175100 1.5 1006249
02:00+26с2479100 1.6 1005311
05:00+25ссв238199 0.0 1005193
08:00+27ссз1167100 0.0 1006364
11:00+30юз3260100 0.0 10061079
14:00+31ююз4457100 0.0 1004886
17:00+30юз5563100 0.0 1002764
20:00+29юз0266100 0.1 1004299